Overview Statistics Trail Chart Weather Telemetry Raw packets
 

This is the latest recevied weather packets stored in our database for station/object ED3YAB-7. If no packets are shown the sender has not sent any weather packets the latest 10 day(s).

<< 17 18 19 20 21 22 23 >>
Time Temp. Humidity Pressure Rain* Wind** Luminosity Snow
1777758494 15.56° C 62% 1024.3 hPa - - - -
1777757294 16.11° C 61% 1024.5 hPa - - - -
1777756101 15.56° C 61% 1024.6 hPa - - - -
1777756094 15.56° C 61% 1024.6 hPa - - - -
1777754901 16.11° C 60% 1024.6 hPa - - - -
1777754894 16.11° C 60% 1024.6 hPa - - - -
1777753701 16.11° C 60% 1024.7 hPa - - - -
1777753694 16.11° C 60% 1024.7 hPa - - - -
1777752501 16.11° C 59% 1024.6 hPa - - - -
1777752494 16.11° C 59% 1024.6 hPa - - - -
1777751305 16.11° C 59% 1024.2 hPa - - - -
1777751294 16.11° C 59% 1024.2 hPa - - - -
1777750093 16.11° C 59% 1024.1 hPa - - - -
1777748895 16.67° C 57% 1024.2 hPa - - - -
1777747702 16.67° C 56% 1024.2 hPa - - - -
1777747695 16.67° C 56% 1024.2 hPa - - - -
1777746506 16.67° C 55% 1024.2 hPa - - - -
1777746496 16.67° C 55% 1024.2 hPa - - - -
1777745295 17.22° C 53% 1024.1 hPa - - - -
1777744095 17.78° C 51% 1024.1 hPa - - - -
1777742905 17.78° C 51% 1024.2 hPa - - - -
1777742894 17.78° C 51% 1024.2 hPa - - - -
1777741702 18.89° C 47% 1024.3 hPa - - - -
1777741694 18.89° C 47% 1024.3 hPa - - - -
1777740501 18.89° C 44% 1024.5 hPa - - - -

* Rain since midnight (hover to see other rain measurements)
** Current wind speed in m/s (hover to see current wind gust speed)